Погода в Мосейцево

Россия / Ярославская область     57°06′37″N   39°44′24″E
темп.,
°C
ветер,
м/с
пор.,
м/с
влажн.,
%
обл.,
%
осадки,
мм/ч
давл.,
гПа
погр.,
м
14 мая, пт
пт1400:00+11ююз3392100 0.0 101740
03:00+9ююз3491100 0.0 101869
06:00+10ююв35915 0.0 1019145
09:00+15ю467699 0.0 1018577
12:00+18ююв4668100 0.0 10181153
15:00+20ююв45649 0.1 10171225
18:00+17юв378399 0.9 1015179
21:00+14юв4795100 1.9 1015121
15 мая, сб
сб1500:00+14юв51195100 1.9 1013223
03:00+13юв4896100 1.9 1012162
06:00+15з3795100 1.6 1012195
09:00+18юв4884100 1.8 1011314
12:00+22ююв697635 3.1 1009833
15:00+19ююв81483100 9.4 1009606
18:00+19ююз7118179 1.9 1008574
21:00+15ю4129213 3.4 1009273
16 мая, вс
вс1600:00+14ююз513931 0.5 1009390
03:00+13ю512961 0.5 1010327
06:00+13ю512935 0.0 1010464
09:00+17ююз7107919 0.0 1011792
12:00+19ююз796585 0.1 10111568
15:00+19юз710715 1.7 10111421
18:00+18юз5107660 0.9 1011785
21:00+14ююз49915 0.9 1012168
17 мая, пн
пн1700:00+13ююз410945 0.0 1013213
03:00+12ююз37960 0.0 1014134
06:00+13юз369373 0.0 1014161
09:00+18юз4578100 0.0 1015502
12:00+21юз4563100 0.0 10151114
15:00+22ю2358100 0.0 10151226
18:00+21юв247499 0.0 1015157
21:00+16в348062 0.1 101447
18 мая, вт
вт1800:00+14вюв499099 0.2 1014143
03:00+14вюв469431 0.3 101389
06:00+15вюв4108910 0.0 1012211
09:00+21юв611695 0.0 1011453
12:00+24юв7125731 0.0 1010863
15:00+26юв7125477 0.0 10101086
18:00+23юв6136067 0.0 1009410
21:00+19ююв61366100 0.0 1009357